Overview Statistics Trail Chart Weather Telemetry Raw packets
 

This is the latest recevied weather packets stored in our database for station/object WA6OOO. If no packets are shown the sender has not sent any weather packets the latest 10 day(s).

<< 79 80 81 82 83 84 85 >>
Time Temp. Humidity Pressure Rain* Wind** Luminosity Snow
1788099268 18.89° C 88% 1015.6 hPa 0 mm - 45 W/m² -
1788098963 18.89° C 87% 1015.5 hPa 0 mm - 42 W/m² -
1788098658 19.44° C 88% 1015.3 hPa 0 mm - 29 W/m² -
1788098356 19.44° C 89% 1015.5 hPa 0 mm - 28 W/m² -
1788098052 19.44° C 89% 1015.4 hPa 0 mm - 22 W/m² -
1788097748 18.89° C 90% 1015.4 hPa 0 mm - 16 W/m² -
1788097443 19.44° C 90% 1015.3 hPa 0 mm - 11 W/m² -
1788097139 19.44° C 91% 1015.3 hPa 0 mm - 7 W/m² -
1788096834 19.44° C 91% 1015.3 hPa 0 mm - 4 W/m² -
1788096529 18.89° C 92% 1015.2 hPa 0 mm - 2 W/m² -
1788096226 18.89° C 92% 1015.2 hPa 0 mm - 1 W/m² -
1788095924 18.33° C 92% 1015 hPa 0 mm - 1 W/m² -
1788095619 18.33° C 92% 1015.1 hPa 0 mm - 0 W/m² -
1788095313 18.33° C 92% 1014.8 hPa 0 mm - 0 W/m² -
1788095009 18.33° C 92% 1014.9 hPa 0 mm - 0 W/m² -
1788094708 18.33° C 92% 1015.2 hPa 0 mm - 0 W/m² -
1788094404 18.33° C 92% 1014.9 hPa 0 mm - 0 W/m² -
1788094101 18.33° C 92% 1014.9 hPa 0 mm - 0 W/m² -
1788093796 18.33° C 92% 1014.8 hPa 0 mm - 0 W/m² -
1788093493 18.33° C 91% 1014.8 hPa 0 mm - 0 W/m² -
1788093189 18.33° C 91% 1014.7 hPa 0 mm - 0 W/m² -
1788092887 18.33° C 90% 1014.9 hPa 0 mm - 0 W/m² -
1788092581 18.33° C 90% 1014.7 hPa 0 mm - 0 W/m² -
1788092271 18.33° C 90% 1014.8 hPa 0 mm - 0 W/m² -
1788091970 18.33° C 89% 1014.8 hPa 0 mm - 0 W/m² -

* Rain latest hour (hover to see other rain measurements)
** Current wind speed in m/s (hover to see current wind gust speed)